This is the latest recevied weather packets stored in our database for station/object K5NWZ. If no packets are shown the sender has not sent any weather packets the latest 10 day(s).
| Time | Temp. | Humidity | Pressure | Rain* | Wind** | Luminosity | Snow |
|---|---|---|---|---|---|---|---|
| 1777598369 | 8.89° C | 54% | 1028.7 hPa | 0 mm | - | 26 W/m² | - |
| 1777598068 | 8.89° C | 53% | 1028.9 hPa | 0 mm | - | 31 W/m² | - |
| 1777597767 | 9.44° C | 53% | 1028.7 hPa | 0 mm | - | 38 W/m² | - |
| 1777597462 | 9.44° C | 53% | 1028.7 hPa | 0 mm | - | 40 W/m² | - |
| 1777597158 | 9.44° C | 52% | 1028.9 hPa | 0 mm | - | 39 W/m² | - |
| 1777596854 | 10° C | 50% | 1028.8 hPa | 0 mm | - | 40 W/m² | - |
| 1777596550 | 9.44° C | 51% | 1028.7 hPa | 0 mm | - | 47 W/m² | - |
| 1777596248 | 9.44° C | 51% | 1028.7 hPa | 0 mm | - | 58 W/m² | - |
| 1777595945 | 9.44° C | 51% | 1028.7 hPa | 0 mm | - | 64 W/m² | - |
| 1777595644 | 9.44° C | 52% | 1028.7 hPa | 0 mm | - | 70 W/m² | - |
| 1777595341 | 9.44° C | 51% | 1028.7 hPa | 0 mm | - | 78 W/m² | - |
| 1777595037 | 9.44° C | 52% | 1028.7 hPa | 0 mm | - | 81 W/m² | - |
| 1777594734 | 9.44° C | 51% | 1028.6 hPa | 0 mm | - | 84 W/m² | - |
| 1777594430 | 9.44° C | 51% | 1028.7 hPa | 0 mm | - | 93 W/m² | - |
| 1777594125 | 9.44° C | 53% | 1028.7 hPa | 0 mm | - | 99 W/m² | - |
| 1777593822 | 9.44° C | 53% | 1028.8 hPa | 0 mm | - | 84 W/m² | - |
| 1777593518 | 10° C | 51% | 1028.4 hPa | 0 mm | - | 90 W/m² | - |
| 1777593213 | 9.44° C | 48% | 1028.6 hPa | 0 mm | - | 99 W/m² | - |
| 1777592912 | 9.44° C | 48% | 1028.6 hPa | 0 mm | - | 103 W/m² | - |
| 1777592608 | 10° C | 48% | 1028.6 hPa | 0 mm | - | 102 W/m² | - |
| 1777592304 | 9.44° C | 49% | 1028.4 hPa | 0 mm | - | 122 W/m² | - |
| 1777592000 | 9.44° C | 48% | 1028.6 hPa | 0 mm | - | 153 W/m² | - |
| 1777591697 | 9.44° C | 48% | 1028.6 hPa | 0 mm | - | 170 W/m² | - |
| 1777591392 | 9.44° C | 48% | 1028.6 hPa | 0 mm | - | 142 W/m² | - |
| 1777591089 | 9.44° C | 49% | 1028.6 hPa | 0 mm | - | 130 W/m² | - |
* Rain latest hour (hover to see other rain measurements)
** Current wind speed in m/s (hover to see current wind gust speed)